Location: Monrovia
(34.7865°N, 86.7139°W)
Time: 00:30:08
(UTC+00:00)

BREEZE-M R/B - Pass Details

Date: 14 July 2020
Orbit: 311 x 4532 km, 49.7° (Epoch: 12 August)

Event Time Altitude Azimuth Distance (km) Brightness Sun altitude
Rises 02:17:54 0° 307° (NW) 6,760 10.4 -14.0°
Reaches altitude 10° 02:23:24 10° 309° (NW) 5,020 9.1 -14.8°
Maximum altitude 02:35:35 82° 37° (NE) 1,216 4.4 -16.7°
Enters shadow 02:38:59 27° 123° (ESE) 1,659 4.6 -17.2°
